Regional Weather Roundup
Issued by NWS Northern Indiana

Home | Current Version | Previous Version | Text Only | Print | Product List | Glossary Off
Versions: 1 2 3 4 5 6 7 8 9 10 11 12 13 14 15 16 17 18 19 20 21 22 23 24 25 26 27 28 29 30 31 32 33 34 35 36 37 38 39 40 41 42 43 44 45 46 47 48 49 50

000
ASUS43 KIWX 171300
RWRIWX

KIWX WEATHER ROUNDUP
NATIONAL WEATHER SERVICE NORTHERN INDIANA
900 AM EDT WED SEP 17 2014

NOTE: "FAIR" INDICATES FEW OR NO CLOUDS BELOW 12,000 FEET WITH NO
SIGNIFICANT WEATHER AND/OR OBSTRUCTIONS TO VISIBILITY.

* THESE STATIONS ARE NOT UNDER NWS QUALITY CONTROL. THEY ALSO MAY NOT
  REPORT WEATHER SUCH AS PRECIPITATION OR FOG.

INZ001>027-171400-
NORTHERN INDIANA

CITY           SKY/WX    TMP DP  RH WIND       PRES   REMARKS
GARY*          PTSUNNY   50  48  93 S3        30.06F
VALPARAISO     FOG       49  46  90 CALM      30.07S VSB 3/4
SOUTH BEND     MOSUNNY   51  46  83 CALM      30.08S
ELKHART*       SUNNY     48  48 100 CALM      30.08S
GOSHEN         SUNNY     50  46  86 CALM      30.07S
ANGOLA*        SUNNY     46  46 100 CALM      30.08S
FORT WAYNE     PTSUNNY   49  48  97 SW3       30.09S

$$
INZ028>050-171400-
CENTRAL INDIANA

CITY           SKY/WX    TMP DP  RH WIND       PRES   REMARKS
LAFAYETTE      MOSUNNY   46  46 100 CALM      30.08S FOG
KOKOMO*        SUNNY     52  48  87 SW5       30.08S
MUNCIE*        CLOUDY    47  45  93 CALM      30.08S FOG
INDIANAPOLIS   MOSUNNY   52  49  89 W3        30.07S

$$
MIZ043>046-050>051-056>058-064>065-071>073-077>080-171400-
SOUTHWEST LOWER MICHIGAN

CITY           SKY/WX    TMP DP  RH WIND       PRES   REMARKS
BATTLE CREEK   SUNNY     47  44  90 S3        30.07S
BENTON HARBOR  SUNNY     48  45  89 SE3       30.06F
COLDWATER*     SUNNY     46  46  97 CALM      30.08S
HILLSDALE*     SUNNY     47  47  99 CALM      30.07S
HOLLAND        SUNNY     50  44  80 S6        30.06F
GRAND RAPIDS   MOSUNNY   47  44  90 S3        30.06S
KALAMAZOO      SUNNY     47  46  97 S3        30.08S
STURGIS*       SUNNY     46  46 100 CALM      30.07S
THREE RIVERS*  FAIR      47  46  99 CALM      30.08S FOG

$$
OHZ001>008-015>018-024>025-171400-
NORTHWEST OHIO

CITY           SKY/WX    TMP DP  RH WIND       PRES   REMARKS
DEFIANCE       SUNNY     49  46  90 CALM      30.09S
FINDLAY        SUNNY     49  46  90 CALM      30.07S
TOLEDO EXPRESS SUNNY     49  45  86 W3        30.08R
TOLEDO METCALF SUNNY     50  46  86 W3        30.08S
LIMA           SUNNY     52  47  83 CALM      30.08S

$$
&&



USA.gov is the U.S. government's official web portal to all federal, state and local government web resources and services.